Starlink 36118

operational
NORAD ID: 67009 Int'l Des: 2025-293 Owner: SPXS Country: US Constellation: starlink
LEOCIRCULAR

Starlink 36118について

説明を読み込み中...

リアルタイム位置

3D地球を読み込み中...

次回通過

高度履歴

Altitude vs Time

uPlot chart will show altitude changes over time

軌道要素

1 67009C 25293G 25346.10187500 -.00385040 00000+0 -54216-3 0 3463
2 67009 69.9975 325.9329 0004173 271.7982 183.4351 16.05889792 14
Epoch: Dec 12, 2025 • Age: 56 hours

現在のステータス

高度 272.7 km
速度 7.75 km/s
衛星直下点 51.43°N, 141.1°E
打ち上げ日 Dec 10, 2025
運用期間 3 days
タイプ internet

技術仕様

分類 Payload
質量 575.00 kg
乾燥質量 530.00 kg
総質量 575.00 kg
長さ 0.30 m
直径 4.10 m
スパン 29.00 m
形状 Box + pan
製造者 SPXS
バスタイプ Starlink V2MO
フェーズステータス In Orbit
所有者/国 SPXS/US

大規模コンステレーション

Loading constellations...